NOAA 16 DEB

Satellite information

Favourite Embed

Satellite Type and Status

DEBRISIN ORBIT

Key statistics

Satellite NOAA 16 DEB at a glance.

Uptime

8995

Days in orbit

Revolutions

≈ 14.5

Per day

Orbit

SSO

Sun Synchronous Orbit

Inclination

99.0

Latest

Satellite identification and parameters

Extended collection of information and parameters for NOAA 16 DEB.

Object identification

Identified? True

Debris? True

Object name: NOAA 16 DEB

International designator: 2000-055FD

Object number (NORAD): 41253

Object ID (CCSDS): 41253

Country: UNITED STATES OF AMERICA (US)

Current information (Y/N): Y

RCS size: SMALL

Orbital parameters

Period: 99.308 minutes

Inclination: 99.0211 deg

SMA: 7103.66 km

Apoapsis: 758.541 km

Periapsis: 692.51 km

RAAN: 8.5829 deg

Eccentricy: 0.0046477

Argument of periapsis: 205.944 deg

Mean anomaly: 153.9422 deg

Mean motion: 14.50038315 rev/day

Mean motion (dot): 0.00006142 rev/day2

B* drag term: 0.001575 1/REarth

Two-line elements (TLE)

Creation date: May 8, 2025, 3:01 a.m.

Reference frame: TEME

Reference center: EARTH

Epoch: May 7, 2025, 9:04 p.m. UTC

TLE line 0: 0 NOAA 16 DEB

TLE line 1: 1 41253U 00055FD 25127.87823582 .00006142 00000-0 15750-2 0 9998

TLE line 2: 2 41253 99.0211 8.5829 0046477 205.9440 153.9422 14.50038315487503

Live tracking on map

Real-time ground track for satellite NOAA 16 DEB.

In-orbit conjunctions

A list of the most updated potential collisions computed for object NOAA 16 DEB.

Target Orbit TCA Probability of collision Miss distance Type
CZ-4B DEB SSO 2024-11-11 12:36:52 0.0002470244 363.0 (m) DEBRIS
FENGYUN 1C DEB SSO 2024-11-10 08:01:46 0.0002180088 846.0 (m) DEBRIS
CZ-6A DEB LEO 2024-11-06 08:04:34 0.0001126965 986.0 (m) DEBRIS
RUBIN 9.1/RUBIN 9.2/PSLV SSO 2024-10-05 20:51:30 0.0002075083 254.0 (m) PAYLOAD

Associated space launch

The NOAA K, L and M POES satellites begin the fifth generation of improved environmental monitoring in support of NOAA missions. The instrument payload has significant improvements and additions/deletions. The instrument changes have effected the spacecraft subsystems and data formats.

NOAA 16 DEB was lifted into orbit during the mission ‘Titan II SLV | NOAA 16’, on board a Titan II SLV space rocket.

The launch took place on Sept. 21, 2000, 10:22 a.m. from Space Launch Complex 4W.

For more information about the launch, click the button.

Launch to space Titan II SLV | NOAA 16
Titan II SLV | NOAA 16

Agency: N/A

Status: Launch Successful

Launch date: Sept. 21, 2000, 10:22 a.m. UTC

Rocket: Titan II SLV

Launch pad: Space Launch Complex 4W

Location: Vandenberg SFB, CA, USA

...

Latest news about this satellite

There are no fresh news available about this satellite. Check back as we update our databases every day.


Newsletter sign-up

Weekly statistics, charts and insights to help you stay on top of the space industry.